カタログに戻る

COSMOS 970 DEB

運用中LEO
NORAD 64983·DEBRIS·🇷🇺 Russia

打ち上げ Dec 21, 1977 から Baikonur Cosmodrome

Loading…

次のパス (今後24時間)

TLE

経年Source: Space-Track

元期: Sep 12, 2026, 09:18 UTC

1 64983U 77121CU  26255.38793034  .00000063  00000-0  17265-3 0  9998
2 64983  65.7837 236.2703 0091071  18.7212  55.6344 13.64182925165572

AllMySatでCOSMOS 970 DEBをリアルタイム追跡

Download on the App Store